Regional Weather Roundup
Issued by NWS Columbia, SC

Home | Current Version | Previous Version | Text Only | Print | Product List | Glossary On
Versions: 1 2 3 4 5 6 7 8 9 10 11 12 13 14 15 16 17 18 19 20 21 22 23 24 25 26 27 28 29 30 31 32 33 34 35 36 37 38 39 40 41 42 43 44 45 46 47 48 49 50
000
ASUS42 KCAE 220210
RWRCAE
REGIONAL WEATHER ROUNDUP
NATIONAL WEATHER SERVICE COLUMBIA SC
1000 PM EDT TUE OCT 21 2014

NOTE: "FAIR" INDICATES FEW OR NO CLOUDS BELOW 12,000 FEET WITH NO
SIGNIFICANT WEATHER AND/OR OBSTRUCTIONS TO VISIBILITY.

NOT ALL STATIONS ARE QUALITY CONTROLLED BY THE NATIONAL
WEATHER SERVICE. USE DATA WITH CAUTION...ESPECIALLY
DEWPOINT OBSERVATIONS.

SCZ001>056-GAZ040-063>065-077-220300-
...UPSTATE SOUTH CAROLINA...

CITY           SKY/WX    TMP DP  RH WIND       PRES   REMARKS
ANDERSON       CLEAR     59  44  57 NW6       29.98R
LIBERTY        FAIR      52  46  81 MISG      29.97R
SPARTANBURG    FAIR      63  39  42 N12G22    29.96R
CLEMSON        CLEAR     63  41  44 NW7       29.99R
GREENVILLE     CLEAR     59  41  51 N9        29.98R
GREENWOOD      CLEAR     58  46  64 N5        29.98R
GREER          CLEAR     59  42  53 N8        29.96R
ROCK HILL      MOCLDY    60  41  49 N9        29.97R
LAURENS        FAIR      54  37  54 N5        29.98R


...CENTRAL SOUTH CAROLINA...

CITY           SKY/WX    TMP DP  RH WIND       PRES   REMARKS
COLUMBIA APT   CLEAR     67  47  48 N6        29.94R
COLUMBIA OWENS CLEAR     67  47  48 VRB6      29.95R
DARLINGTON     PTCLDY    63  46  55 N7        29.94R
FLORENCE       CLOUDY    66  50  56 N12       29.91R
MCENTIRE ANGB  PTCLDY    56  51  84 N8        29.94R
ORANGEBURG     CLEAR     60  52  74 CALM      29.93R
SUMTER SHAW    PTCLDY    66  51  59 NW9       29.92R
NEWBERRY       FAIR      61  46  59 N7        29.99R
AIKEN          FAIR      61  52  72 NW6       29.99R
BARNWELL       FAIR      59  52  77 W3        29.95R
MANNING        MOCLDY    61  61 100 CALM      29.92R
CAMDEN         MOCLDY    63  48  59 CALM      29.95R
LANCASTER      MOCLDY    63  41  45 N6        29.96R
WINNSBORO      FAIR      61  45  55 N10       29.96R


...EASTERN AND COASTAL SOUTH CAROLINA...

CITY           SKY/WX    TMP DP  RH WIND       PRES   REMARKS
N MYRTLE BCH   MOCLDY    64  57  78 CALM      29.90R
CONWAY         FAIR      55  55 100 CALM      29.90S
MARION         FAIR      59  54  82 CALM      29.90R
HARTSVILLE     FAIR      64  23  20 N7        29.94R
FLORENCE       CLOUDY    66  50  56 N12       29.91R
DARLINGTON     PTCLDY    63  46  55 N7        29.94R
CHARLESTON APT FAIR      67  59  75 W6        29.93R
MOUNT PLEASANT FAIR      61  59  94 CALM      29.92R
WALTERBORO     CLEAR     59 N/A N/A CALM      29.94R
BEAUFORT       CLEAR     64  57  78 W7        29.93R


...EASTERN GEORGIA...

CITY           SKY/WX    TMP DP  RH WIND       PRES   REMARKS
AUGUSTA BUSH F CLEAR     67  48  50 NW10      29.95R
AUGUSTA DANIEL CLEAR     67  49  52 NW9       29.96R
THOMSON        CLEAR     64  55  71 NW5       30.01R
WASHINGTON     FAIR      63  54  72 NW6       29.97R
CLAXTON        FAIR      59  59 100 CALM      29.96R
SYLVANIA       CLEAR     63  58  84 CALM      29.96R
STATESBORO     CLEAR     57  55  91 CALM      29.95S
SAVANNAH       CLEAR     64  57  78 W3        29.95R


...SOUTHERN NORTH CAROLINA...

CITY           SKY/WX    TMP DP  RH WIND       PRES   REMARKS
CHARLOTTE      MOCLDY    58  40  51 N8        29.98R
MONROE         PTCLDY    61  41  47 N10       29.96R
WADESBORO      MOCLDY    61  42  49 N6        29.95R
ROCKINGHAM     PTCLDY    62  44  50 N8        29.94R
RUTHERFORDTON  PTCLDY    56  39  52 N8G16     30.00R
ASHEVILLE      CLEAR     52  37  56 N22G28    30.02R

$$



USA.gov is the U.S. government's official web portal to all federal, state and local government web resources and services.